Central Sonoma County Latest

22 Stations

15 Minute Data | America/Los_Angeles
as of 9/20/19 2:07 PM PDT
Station Date Time Temp (°F) RH (%) Dew Pt (°F) Wind Spd (mph) Wind Dir (°) Wind Gust (mph) Latest Rain (In) Daily Rain (In) Daily Min Temp (°F) Daily Max Temp (°F)
Healdsburg - S (Sodini) 9/20/19 1400 86.1   6.1 23   8 43.8   3.0 4.3 SW | 217 10.1   0.3 0.00 0.00 47.5   0.6 86.5   5.6
Ranch 8 (Windsor-NW) 9/20/19 1400 85.5   6.1 27   9 47.4   2.2 4.4 WNW | 290 10.8   4.5 0.00 0.00 53.1   2.4 86.8   5.7
Foothill Ranch 16 9/20/19 1400 87.8   8.8 22   11 44.4   2.9 3.7 W | 261 8.4   1.2 0.00 0.00 58.1   13.6 88.5   8.3
Airport Ranch 14 9/20/19 1400 86.0   7.8 23   11 43.6   3.7 1.8 W | 275 4.6   3.4 0.00 0.00 51.7   5.2 86.8   7.5
Silk Road 9/20/19 1400 85.3   6.8 24   9 44.4   2.5 3.4 NW | 316 7.1   0.3 0.00 0.00 45.1   0.8 85.7   6.5
Oak Meadows Ranch 5 9/20/19 1400 84.2   6.9 26   12 45.4   3.9 4.2 SW | 236 8.3   1.5 0.00 0.00 45.3   0.8 85.2   7.0
Laughlin Rd (Windsor-South) 9/20/19 1400 84.8   6.0 25   10 44.7   3.4 - - - 0.00 0.00 52.3   5.7 86.7   6.3
Barnes Rd (SE Fulton) 9/20/19 1400 86.3   10.0 21   15 41.5   6.1 4.0 WNW | 300 10.6   4.3 0.00 0.00 47.1   1.6 88.1   10.5
Crinella Ranch 21 9/20/19 1400 86.2   6.8 23   10 43.6   4.2 4.1 W | 274 9.4   1.6 0.00 0.00 46.5   0.4 87.0   6.4
Denner Ranch Base 9/20/19 1400 84.9   6.7 23   11 42.9   4.6 3.3 WSW | 248 8.6   0.9 0.00 0.00 46.9   1.9 86.0   7.1
Guerneville Road (Santa Rosa Plains) 9/20/19 1400 83.7   7.5 25   13 44.4   4.8 3.5 SW | 233 7.5   0.7 0.00 0.00 43.8   0.2 84.4   7.4
Rich Ranch (Guerneville Rd) 9/20/19 1400 87.6   7.6 21   10 43.1   3.8 - - - - - 43.5   0.2 88.2   7.6
Occidental Rd (Sebastopol) 9/20/19 1400 86.3   6.8 21   10 42.0   4.2 2.4 WNW | 302 8.8   2.4 0.00 0.00 44.6   0.7 87.5   7.1
Garrison Ranch 12 9/20/19 1400 86.6   6.9 23   10 44.2   3.5 2.1 S | 188 4.1   3.4 0.00 0.00 45.2   0.1 87.3   7.1
Laughlin Rd (Guerneville) 9/20/19 1400 87.2   6.7 26   7 48.3   0.9 5.7 S | 175 11.2   0.1 0.00 0.00 43.6   0.0 87.7   7.0
Korbel Winery 9/20/19 1400 85.6   7.8 24   9 44.3   2.1 4.1 SSE | 168 10.2   1.1 0.00 0.00 47.3   0.7 86.3   7.9
Shone Farms (Forestville) 9/20/19 1400 83.9   6.1 24   11 43.4   4.8 2.4 ENE | 72 7.6   0.2 0.00 0.00 49.2   1.1 87.2   7.9
Ranch 30 (Forestville-NE) 9/20/19 1400 85.1   8.4 26   11 46.0   2.2 2.2 N | 356 7.1   0.5 0.00 0.00 46.6   2.2 86.2   5.7
Dutton Ranch (Graton-West) 9/20/19 1400 85.5   6.5 20   12 40.4   6.7 2.4 NW | 318 6.8   1.0 0.00 0.00 43.8   0.9 86.8   6.1
Mill Station Rd (Graton-South) 9/20/19 1400 82.9   7.2 24   13 42.2   5.4 2.9 S | 176 6.4   0.5 0.00 0.00 41.5   0.9 83.7   7.5
Burnside Road (Sebastopol Hills) 9/20/19 1400 80.1   5.6 36   3 50.8   3.0 7.1 SW | 215 13.3   8.0 0.00 0.00 53.4   0.9 82.8   7.2
Hirsch Vineyards 9/20/19 1400 74.1   7.3 38   15 47.0   2.1 3.1 W | 261 5.7   3.8 0.00 0.00 62.4   11.7 76.1   6.6
Max     87.8 38 50.8 7.1 - 13.3 0.00 0.00 62.4 88.5
Avg     84.8 25 44.4 3.5 - 8.3 0.00 - - -
Min     74.1 20 40.4 1.8 - 4.1 0.00 0.00 41.5 76.1